Tiempo cada hora Barshatas

Hoy, 1 Marzo, Lunes

Tiempo Temperatura Precipitaciones Viento Presión Humedad
00:00 -15°C° 0 mm 7 mps 705 mmHg 89%
01:00 -16°C° 0 mm 6 mps 705 mmHg 89%
02:00 -16°C° 0 mm 6 mps 705 mmHg 90%
03:00 -16°C° 0 mm 6 mps 705 mmHg 90%
04:00 -16°C° 0 mm 6 mps 705 mmHg 91%
05:00 -15°C° 0 mm 5 mps 704 mmHg 90%
06:00 -15°C° 0 mm 5 mps 704 mmHg 89%
07:00 -15°C° 0 mm 5 mps 704 mmHg 89%
08:00 -15°C° 0 mm 5 mps 704 mmHg 88%
09:00 -14°C° 0 mm 5 mps 704 mmHg 88%
10:00 -13°C° 0 mm 5 mps 704 mmHg 88%
11:00 -12°C° 0 mm 6 mps 704 mmHg 87%
12:00 -11°C° 0 mm 5 mps 704 mmHg 88%
13:00 -10°C° 0 mm 5 mps 704 mmHg 89%
14:00 -10°C° 0 mm 5 mps 704 mmHg 89%
15:00 -10°C° 0 mm 5 mps 704 mmHg 90%
16:00 -11°C° 0 mm 5 mps 703 mmHg 92%
17:00 -11°C° 0 mm 5 mps 703 mmHg 93%
18:00 -10°C° 0 mm 4 mps 703 mmHg 93%
19:00 -10°C° 0 mm 4 mps 703 mmHg 93%
20:00 -11°C° 0 mm 4 mps 703 mmHg 94%
21:00 -10°C° 0 mm 4 mps 703 mmHg 93%
22:00 -10°C° 0 mm 4 mps 703 mmHg 93%
23:00 -10°C° 0 mm 4 mps 703 mmHg 92%

Mañana, 2 Marzo, Martes

Tiempo Temperatura Precipitaciones Viento Presión Humedad
00:00 -9°C° 0.3 mm 4 mps 703 mmHg 93%
01:00 -9°C° 0.3 mm 4 mps 703 mmHg 94%
02:00 -10°C° 0.3 mm 5 mps 703 mmHg 95%
03:00 -10°C° 0.5 mm 5 mps 703 mmHg 95%
04:00 -10°C° 0.5 mm 5 mps 703 mmHg 95%
05:00 -10°C° 0.5 mm 5 mps 703 mmHg 95%
06:00 -10°C° 0.3 mm 5 mps 703 mmHg 95%
07:00 -10°C° 0.3 mm 5 mps 703 mmHg 95%
08:00 -10°C° 0.3 mm 5 mps 703 mmHg 94%
09:00 -8°C° 0 mm 5 mps 703 mmHg 94%
10:00 -8°C° 0 mm 5 mps 702 mmHg 94%
11:00 -8°C° 0 mm 5 mps 702 mmHg 94%
12:00 -7°C° 0.1 mm 5 mps 702 mmHg 94%
13:00 -7°C° 0.1 mm 5 mps 701 mmHg 94%
14:00 -6°C° 0.1 mm 5 mps 701 mmHg 94%
15:00 -6°C° 0.2 mm 5 mps 700 mmHg 95%
16:00 -6°C° 0.2 mm 5 mps 700 mmHg 95%
17:00 -6°C° 0.2 mm 5 mps 700 mmHg 95%
18:00 -6°C° 0.2 mm 5 mps 701 mmHg 94%
19:00 -6°C° 0.2 mm 5 mps 701 mmHg 94%
20:00 -6°C° 0.2 mm 5 mps 701 mmHg 93%
21:00 -6°C° 0 mm 5 mps 702 mmHg 93%
22:00 -6°C° 0 mm 5 mps 703 mmHg 92%
23:00 -6°C° 0 mm 6 mps 703 mmHg 92%

Pasado mañana, 3 Marzo, Miércoles

Tiempo Temperatura Precipitaciones Viento Presión Humedad
00:00 -7°C° 0 mm 5 mps 703 mmHg 92%
01:00 -8°C° 0 mm 5 mps 703 mmHg 93%
02:00 -11°C° 0 mm 5 mps 704 mmHg 93%
03:00 -12°C° 0 mm 4 mps 704 mmHg 93%
04:00 -14°C° 0 mm 3 mps 704 mmHg 93%
05:00 -16°C° 0 mm 3 mps 704 mmHg 92%
06:00 -17°C° 0 mm 3 mps 704 mmHg 92%
07:00 -18°C° 0 mm 3 mps 705 mmHg 91%
08:00 -18°C° 0 mm 2 mps 705 mmHg 91%
09:00 -17°C° 0 mm 3 mps 706 mmHg 90%
10:00 -16°C° 0 mm 3 mps 706 mmHg 89%
11:00 -15°C° 0 mm 3 mps 706 mmHg 87%
12:00 -15°C° 0 mm 3 mps 706 mmHg 87%
13:00 -14°C° 0 mm 3 mps 707 mmHg 87%
14:00 -14°C° 0 mm 3 mps 707 mmHg 86%
15:00 -15°C° 0 mm 3 mps 707 mmHg 87%
16:00 -16°C° 0 mm 3 mps 707 mmHg 89%
17:00 -16°C° 0 mm 2 mps 707 mmHg 90%
18:00 -17°C° 0 mm 2 mps 707 mmHg 90%
19:00 -18°C° 0 mm 2 mps 708 mmHg 91%
20:00 -19°C° 0 mm 2 mps 708 mmHg 92%
21:00 -18°C° 0 mm 1 mps 708 mmHg 92%
22:00 -18°C° 0 mm 1 mps 708 mmHg 92%
23:00 -19°C° 0 mm 1 mps 708 mmHg 92%

4 Marzo, Jueves

Tiempo Temperatura Precipitaciones Viento Presión Humedad
00:00 -19°C° 0 mm 1 mps 707 mmHg 90%
01:00 -19°C° 0 mm 1 mps 707 mmHg 89%
02:00 -19°C° 0 mm 1 mps 707 mmHg 88%
03:00 -20°C° 0 mm 1 mps 707 mmHg 87%
04:00 -20°C° 0 mm 1 mps 707 mmHg 86%
05:00 -20°C° 0 mm 1 mps 707 mmHg 84%
06:00 -21°C° 0 mm 2 mps 707 mmHg 84%
07:00 -20°C° 0 mm 2 mps 707 mmHg 84%
08:00 -20°C° 0 mm 2 mps 707 mmHg 83%
09:00 -18°C° 0 mm 2 mps 707 mmHg 84%
10:00 -16°C° 0 mm 2 mps 707 mmHg 85%
11:00 -14°C° 0 mm 2 mps 707 mmHg 87%
12:00 -13°C° 0 mm 2 mps 707 mmHg 88%
13:00 -13°C° 0 mm 3 mps 706 mmHg 90%
14:00 -12°C° 0 mm 3 mps 706 mmHg 92%
15:00 -12°C° 0 mm 3 mps 706 mmHg 91%
16:00 -13°C° 0 mm 3 mps 705 mmHg 90%
17:00 -14°C° 0 mm 3 mps 705 mmHg 89%
18:00 -13°C° 0 mm 3 mps 705 mmHg 90%
19:00 -12°C° 0 mm 4 mps 704 mmHg 91%
20:00 -12°C° 0 mm 4 mps 704 mmHg 93%
21:00 -11°C° 0.1 mm 5 mps 704 mmHg 93%
22:00 -10°C° 0.1 mm 6 mps 703 mmHg 94%
23:00 -9°C° 0.1 mm 7 mps 703 mmHg 95%

5 Marzo, Viernes

Tiempo Temperatura Precipitaciones Viento Presión Humedad
00:00 -10°C° 0.1 mm 8 mps 702 mmHg 94%
01:00 -10°C° 0.1 mm 9 mps 701 mmHg 94%
02:00 -9°C° 0.1 mm 10 mps 700 mmHg 93%
03:00 -9°C° 1.3 mm 9 mps 699 mmHg 94%
04:00 -9°C° 1.3 mm 9 mps 699 mmHg 95%
05:00 -8°C° 1.3 mm 8 mps 699 mmHg 96%
06:00 -7°C° 1.2 mm 8 mps 701 mmHg 94%
07:00 -6°C° 1.2 mm 8 mps 702 mmHg 93%
08:00 -5°C° 1.2 mm 8 mps 703 mmHg 91%
09:00 -4°C° 0.1 mm 7 mps 705 mmHg 90%
10:00 -6°C° 0.1 mm 7 mps 706 mmHg 89%
11:00 -6°C° 0.1 mm 7 mps 707 mmHg 88%
12:00 -7°C° 0 mm 7 mps 708 mmHg 86%
13:00 -8°C° 0 mm 7 mps 709 mmHg 84%
14:00 -9°C° 0 mm 7 mps 710 mmHg 82%
15:00 -11°C° 0 mm 7 mps 710 mmHg 84%
16:00 -11°C° 0 mm 6 mps 711 mmHg 86%
17:00 -13°C° 0 mm 5 mps 712 mmHg 88%
18:00 -15°C° 0 mm 4 mps 712 mmHg 90%
19:00 -15°C° 0 mm 3 mps 712 mmHg 92%
20:00 -17°C° 0 mm 3 mps 713 mmHg 94%
21:00 -17°C° 0 mm 2 mps 712 mmHg 96%
22:00 -18°C° 0 mm 2 mps 712 mmHg 97%
23:00 -17°C° 0 mm 1 mps 712 mmHg 98%

6 Marzo, Sábado

Tiempo Temperatura Precipitaciones Viento Presión Humedad
00:00 -17°C° 0 mm 1 mps 712 mmHg 98%
01:00 -17°C° 0 mm 1 mps 712 mmHg 98%
02:00 -17°C° 0 mm 1 mps 711 mmHg 98%
03:00 -19°C° 0 mm 2 mps 711 mmHg 98%
04:00 -19°C° 0 mm 2 mps 711 mmHg 98%
05:00 -20°C° 0 mm 2 mps 711 mmHg 98%
06:00 -19°C° 0 mm 2 mps 711 mmHg 97%
07:00 -18°C° 0 mm 2 mps 710 mmHg 97%
08:00 -18°C° 0 mm 2 mps 710 mmHg 97%
09:00 -16°C° 0 mm 2 mps 710 mmHg 95%
10:00 -12°C° 0 mm 1 mps 710 mmHg 93%
11:00 -10°C° 0 mm 1 mps 709 mmHg 91%
12:00 -9°C° 0 mm 1 mps 709 mmHg 89%
13:00 -8°C° 0 mm 1 mps 709 mmHg 86%
14:00 -8°C° 0 mm 1 mps 708 mmHg 84%
15:00 -8°C° 0 mm 1 mps 708 mmHg 82%
16:00 -10°C° 0 mm 2 mps 707 mmHg 80%
17:00 -12°C° 0 mm 2 mps 706 mmHg 78%
18:00 -13°C° 0 mm 2 mps 706 mmHg 72%
19:00 -13°C° 0 mm 2 mps 706 mmHg 65%
20:00 -13°C° 0 mm 2 mps 706 mmHg 59%
21:00 -13°C° 0 mm 2 mps 706 mmHg 55%
22:00 -13°C° 0 mm 2 mps 706 mmHg 52%
23:00 -13°C° 0 mm 2 mps 706 mmHg 49%
Mostrar más

Necesitamos Su Consentimiento

Meteoprog y nuestros Proveedores de Servicios pueden almacenar y acceder a sus datos personales como cookies, identificadores de dispositivo u otras tecnologías similares de su dispositivo y procesar dichos datos para personalizar contenido y anuncios, además de ofrecer funciones de redes sociales y analizar el tráfico.

  • Almacenar y/o acceder a información en su dispositivo

    Se puede almacenar o acceder a cookies, identificadores de dispositivo u otra información de su dispositivo para los fines anteriormente indicados.

  • Anuncios y contenido personalizados, medición de anuncios y contenido, percepciones del público, y desarrollo de productos

    Los anuncios y el contenido pueden personalizarse en base a su perfil. Se pueden añadir más datos para personalizar mejor los anuncios y contenidos. Se puede medir el rendimiento de los anuncios y contenidos. Se puede obtener la percepción sobre el público que ha visto los anuncios y contenidos. Dichos datos pueden usarse para desarrollar o mejorar la experiencia del usuario, sistemas y software.

Al hacer clic en ‘Estoy De Acuerdo’ usted permitirá el uso de las cookies, identificadores de dispositivo, balizas web u otras tecnologías similares indicadas. Su configuración puede cambiarse desde el navegador de su dispositivo.

Para ciertos fines, los intereses legítimos pueden ser considerados por encima del consentimiento. Puede leer más sobre ello en nuestra Política de Privacidad y Cookies.